CW9119 Weather Reports


Display with metric or nautical units.
time (UTC)temp
F
wind
direction
speed
MPH
gust
MPH
rain 1hr
in
rain 24hr
in
rain mn
in
humidity
%
barometer
mb
20260503203108 60 133 0.0 1.0 0.00 0.00 0.00 50 1013.8
20260503201108 61 159 0.0 1.0 0.00 0.00 0.00 48 1014.0
20260503195108 62 161 0.0 2.0 0.00 0.00 0.00 47 1014.2
20260503193108 63 156 0.0 1.0 0.00 0.00 0.00 45 1014.1
20260503192108 64 153 1.0 7.0 0.00 0.00 0.00 44 1014.1
20260503185108 64 150 2.0 7.0 0.00 0.00 0.00 43 1013.5
20260503174107 67 168 1.0 7.0 0.00 0.00 0.00 38 1012.6
20260503173107 68 171 4.0 11.0 0.00 0.00 0.00 37 1012.5
20260503171107 69 134 4.0 16.0 0.00 0.00 0.00 36 1012.4
20260503170107 69 150 3.0 10.0 0.00 0.00 0.00 35 1012.2
20260503160107 71 119 0.0 5.0 0.00 0.00 0.00 35 1012.3
20260503150106 71 142 6.0 13.0 0.00 0.00 0.00 32 1012.9
20260503140106 73 137 6.0 14.0 0.00 0.00 0.00 32 1013.6
20260503131106 73 158 2.0 11.0 0.00 0.00 0.00 35 1014.2
20260503100109 70 60 3.0 13.0 0.00 0.00 0.00 37 1016.0
20260503090109 68 148 2.0 10.0 0.00 0.00 0.00 41 1016.6
20260503081109 67 141 2.0 8.0 0.00 0.00 0.00 41 1017.1
20260503080109 67 143 1.0 8.0 0.00 0.00 0.00 42 1017.3
20260503071108 64 149 0.0 6.0 0.00 0.00 0.00 46 1017.3
20260503053108 49 172 0.0 0.0 0.00 0.00 0.00 72 1017.0
20260503052108 48 172 0.0 0.0 0.00 0.00 0.00 74 1017.0
20260503051107 46 172 0.0 0.0 0.00 0.00 0.00 78 1016.9
20260503050107 45 172 0.0 0.0 0.00 0.00 0.00 78 1016.8
20260503045107 44 172 0.0 0.0 0.00 0.00 0.00 79 1016.7
20260503043107 42 172 0.0 0.0 0.00 0.00 0.00 80 1016.8
20260503042107 41 172 0.0 0.0 0.00 0.00 0.00 80 1016.6
20260503035107 41 172 0.0 0.0 0.00 0.00 0.00 80 1016.6
20260503033107 41 172 0.0 0.0 0.00 0.00 0.00 80 1016.5
20260503032107 41 172 0.0 0.0 0.00 0.00 0.00 80 1016.6
20260503030106 41 172 0.0 0.0 0.00 0.00 0.00 79 1016.6
20260503025106 41 172 0.0 0.0 0.00 0.00 0.00 78 1016.5
20260503024106 41 172 0.0 0.0 0.00 0.00 0.00 78 1016.8
20260503023106 41 172 0.0 1.0 0.00 0.00 0.00 78 1016.8
20260503012106 42 172 0.0 0.0 0.00 0.00 0.00 75 1017.1
20260503011106 42 172 0.0 0.0 0.00 0.00 0.00 74 1017.1
20260503010106 42 172 0.0 0.0 0.00 0.00 0.00 74 1017.2
20260503005106 42 172 0.0 0.0 0.00 0.00 0.00 74 1017.2
20260503004106 42 172 0.0 0.0 0.00 0.00 0.00 73 1017.1
20260503001106 43 172 0.0 0.0 0.00 0.00 0.00 71 1017.3
20260503000106 43 172 0.0 0.0 0.00 0.00 0.00 70 1017.4
20260502235106 43 172 0.0 0.0 0.00 0.00 0.00 70 1017.5
20260502234106 43 172 0.0 0.0 0.00 0.00 0.00 70 1017.4
20260502233106 43 172 0.0 0.0 0.00 0.00 0.00 69 1017.6
20260502232106 44 172 0.0 0.0 0.00 0.00 0.00 69 1017.7
20260502220105 46 172 0.0 0.0 0.00 0.00 0.00 64 1017.9
20260502215110 46 172 0.0 0.0 0.00 0.00 0.00 63 1017.9
20260502211109 49 172 0.0 0.0 0.00 0.00 0.00 59 1018.2
20260502210110 49 172 0.0 0.0 0.00 0.00 0.00 58 1018.3
20260502205109 50 172 0.0 0.0 0.00 0.00 0.00 57 1018.3